Location: Bégole
(43.1574°N, 0.3291°E)
Time: 00:41:22
(UTC+00:00)

deb Delta 89 - Pass Details

Date: 26 February 2024
Orbit: 714 x 2021 km, 97.5° (Epoch: 13 April)

Event Time Altitude Azimuth Distance (km) Brightness Sun altitude
Rises 00:06:18 0° 22° (NNE) 5,486 ? -55.8°
Reaches altitude 10° 00:12:13 10° 45° (NE) 4,444 ? -55.8°
Enters shadow 00:17:06 14° 72° (ENE) 3,995 ? -55.8°
